User: anonymous
Location: Owatonna
(44.0840°N, 93.2260°W)
Time: 19:24:12
(UTC-05:00)
Language:

ALOS - Orbit

View from above orbital plane
View from above orbital plane
View from above satellite
View from above satellite

Ground track
Ground track

The orbit data is extracted from the following two-line orbital elements,

1 28931U 06002A   14213.17346675  .00000760  00000-0  16323-3 0    38
2 28931 097.9803 269.6653 0001834 078.1265 006.0375 14.61224793453892
Epoch (UTC): 01 August 2014 04:09:47
Eccentricity: 0.0001834
inclination: 97.9803°
perigee height: 688 km
apogee height: 690 km
right ascension of ascending node: 269.6653°
argument of perigee: 78.1265°
revolutions per day: 14.61224793
mean anomaly at epoch: 6.0375°
orbit number at epoch: 45389

The dashed part of the orbit path shows where the satellite is in the earth's shadow,  

DLR